Location: Newark
(35.2672°N, 80.7344°W)
Time: 20:50:24
(UTC+00:00)

SR - Pass Details

Date: 24 January 2020
Orbit: 575 x 880 km, 66.7° (Epoch: 22 February)

Event Time Altitude Azimuth Distance (km) Brightness Sun altitude
Rises 11:54:35 0° 344° (NNW) 3,381 ? -7.1°
Reaches altitude 10° 11:57:37 10° 359° (N) 2,397 ? -6.6°
Maximum altitude 12:01:57 23° 51° (NE) 1,588 ? -5.7°
Drops below altitude 10° 12:06:00 10° 103° (ESE) 2,229 ? -4.9°
Sets 12:08:42 0° 118° (ESE) 3,088 ? -4.4°
